Location: Unspecified
(0.0000°N, 0.0000°E)
Time: 15:34:47
(UTC+00:00)

deb r/b Ablestar - Visible Passes

Search period start: 18 June 2025 00:00
Search period end: 28 June 2025 00:00
Orbit: 823 x 959 km, 66.7° (Epoch: 18 June)

Date Brightness Start Highest point End Pass type
(mag) Time Alt. Az. Time Alt. Az. Time Alt. Az.
25 Jun ? 20:27:09 12° NNE 20:27:09 12° NNE 20:27:33 10° NNE visible
26 Jun ? 20:22:47 48° N 20:22:47 48° N 20:27:12 10° NNE visible
27 Jun ? 18:33:29 10° SE 18:35:09 11° ESE 18:36:50 10° E visible
27 Jun ? 20:14:32 10° SSW 20:20:34 59° WNW 20:26:43 10° N visible
